Regional Weather Roundup
Issued by NWS New Orleans/Baton Rouge, LA

Home | Current Version | Previous Version | Graphics & Text | Print | Product List | Glossary On
Versions: 1 2 3 4 5 6 7 8 9 10 11 12 13 14 15 16 17 18 19 20 21 22 23 24 25 26 27 28 29 30 31 32 33 34 35 36 37 38 39 40 41 42 43 44 45 46 47 48 49 50
865
ASUS44 KLIX 170805
RWRLIX
NEW ORLEANS REGIONAL WEATHER ROUNDUP
NATIONAL WEATHER SERVICE NEW ORLEANS LA
200 AM CST WED DEC 17 2014

NOTE: "FAIR" INDICATES FEW OR NO CLOUDS BELOW 12,000 FEET WITH NO
      SIGNIFICANT WEATHER AND/OR OBSTRUCTIONS TO VISIBILITY.
      SKY/WX - SKY CONDITION AND SIGNIFICANT WEATHER.
      TMP - AIR TEMPERATURE.     DP    - DEWPOINT TEMPERATURE.
      RH  - RELATIVE HUMIDITY.   PRES  - PRESSURE.
      HI  - HEAT INDEX.          WCI   - WIND CHILL INDEX.

*  THESE STATIONS ARE NOT NWS OR FAA STATIONS AND ARE NOT UNDER
   NWS QUALITY CONTROL.

LAZ038-040-048-061>063-065>067-069-170900-
SOUTHEAST LOUISIANA

CITY           SKY/WX    TMP DP  RH WIND       PRES   REMARKS
N.O. AUDUBON     N/A     50  42  72 MISG        N/A
N.O. INTL ARPT CLEAR     50  39  66 NE12      30.28R
N.O. LAKEFRONT CLEAR     53  41  63 N15       30.29R
N.O. DOWNTOWN*   N/A     52  36  54 N7        30.29R
SLIDELL        CLEAR     37  34  89 CALM      30.27R
BATON ROUGE    CLEAR     41  36  82 NE3       30.27S
BOOTHVILLE     CLEAR     54  45  71 N6        30.25R
BELLE CHASSE   CLEAR     49  39  68 N5        30.27R
BOGALUSA*        N/A     38  35  87 N5        30.30R WCI  35
GALLIANO*      SUNNY     53  42  67 MISG      30.27R
NEW ROADS*       N/A     38  37  94 CALM      30.28F
GONZALES*        N/A     40  38  93 CALM      30.28S
HAMMOND*       CLEAR     39  36  87 CALM      30.29R
HOUMA*         CLEAR     45  39  80 N6        30.26R HAZE
PORT FOURCHON* SUNNY     55  45  67 N8        30.28S

$$

MSZ070-080>082-170900-
SOUTHERN MISSISSIPPI

CITY           SKY/WX    TMP DP  RH WIND       PRES   REMARKS
MCCOMB         CLEAR     38  34  85 N3        30.27S
GULFPORT       CLEAR     44  36  73 N5        30.25S
BILOXI         CLEAR     44  38  78 N8        30.25S
PASCAGOULA     CLEAR     38  36  92 N5        30.26R WCI  34

$$

COASTAL OBSERVATIONS
LAKE AND NEARSHORE STATIONS

STATION/POSITION TIME  TEMP    WIND        PRES    WAVE
                       AIR SEA DIR/SP/G            HT/PER
                 (UTC) (F)     (DEG/KT/KT) (MB)    (FT/S)
PASCAGOULA       0800   46     360/  9/ 13 1023.7
WAVELAND YACHT   0800   47     360/ 11/ 13 1023.6
GRAND ISLE       0800   54 63   40/ 11/ 17 1024.5
SOUTHWEST PASS   0800   57                 1023.9
NEW CANAL        0800   52 58   30/ 15/ 17 1025.4
SHELL BEACH      0800   53      20/ 16/ 18 1024.1

OFFSHORE STATIONS

STATION/POSITION TIME  TEMP    WIND        PRES    WAVE
                       AIR SEA DIR/SP/G            HT/PER
                 (UTC) (F)     (DEG/KT/KT) (MB)    (FT/S)
64 S DAUPHIN ISL 0800   61 75   20/ 14/ 17 1022.5    2/ 4

$$




USA.gov is the U.S. government's official web portal to all federal, state and local government web resources and services.